Location: Edelhof
(46.9167°N, 15.7167°E)
Time: 21:43:17
(UTC+00:00)

Daily predictions for brighter satellites

Satellite Brightness Start Highest point End
(mag) Time Altitude Azimuth Time Altitude Azimuth Time Altitude Azimuth
FALCON 9 DEB 3.5 18:47:48 10° WNW 18:50:43 45° SW 18:53:38 10° SE
Cosmos 1242 Rocket 4.2 18:51:09 10° SE 18:53:30 17° E 18:55:51 10° NE
OBJECT-B 1.2 18:51:50 10° S 18:55:03 64° W 18:58:17 10° NNW
DELTA 2 R/B (1) 4.3 18:50:28 10° WSW 18:55:37 39° S 19:00:44 10° ESE
Cosmos 1437 Rocket 3.2 18:52:14 10° SSE 18:55:52 41° E 18:59:36 10° NNE
Resurs 01 Rocket 2.2 18:53:00 10° SE 18:57:11 41° ENE 19:01:22 10° N
CZ-4C R/B 4.0 18:51:19 10° NNW 18:57:27 34° NNE 19:04:32 10° E
Cosmos 2082 Rocket 4.4 18:56:22 10° N 18:58:32 12° NNE 19:00:42 10° NE
FALCON 9 DEB 3.4 18:56:30 10° WNW 18:59:29 50° SW 19:02:26 10° SE
Sich 1 3.7 18:57:35 10° N 19:01:39 39° ENE 19:05:44 10° SE
OE (NEXTSAT) 4.3 18:59:04 10° WSW 19:02:31 72° S 19:06:00 10° E
Intercosmos 24 4.5 18:59:51 10° SSE 19:03:20 32° E 19:06:33 10° NNE
MOS 1 4.4 19:02:39 10° SSE 19:08:19 84° WSW 19:14:02 10° NNW
Cosmos 1782 4.3 19:07:43 11° SE 19:10:30 20° E 19:13:24 10° NE
MOS 1-B Rocket 4.5 19:04:17 10° NNE 19:12:07 90° WNW 19:18:41 10° SSW
SJ-6B 4.3 19:16:01 10° SSW 19:19:35 36° W 19:23:16 10° NNW
Cosmos 1151 Rocket 4.0 19:21:16 12° SSE 19:24:35 30° E 19:28:24 10° NNE
Cosmos 2278 Rocket 3.8 19:23:59 13° ESE 19:25:51 15° E 19:28:55 10° ENE
Terra 3.7 19:23:32 10° E 19:26:37 17° ENE 19:29:41 10° NNE
USA 290 2.4 19:24:45 10° NNW 19:27:58 57° ENE 19:30:10 18° SE
Cosmos 1602 4.4 19:24:54 10° N 19:28:32 39° ENE 19:31:08 17° SE
Meteor 1-25 Rocket 4.4 19:23:20 10° N 19:29:10 68° ENE 19:34:41 12° SSE
Ariane Rocket 3.6 19:24:15 10° S 19:29:12 56° W 19:34:13 10° NNW
USA 307 4.5 19:26:07 10° WNW 19:29:59 32° N 19:33:52 10° ENE
CREW DRAGON DEMO-1 DEB 4.4 19:28:32 10° WNW 19:30:53 27° N 19:33:14 10° ENE
CZ-2C R/B 3.9 19:30:23 10° NNE 19:34:43 48° E 19:39:06 10° S
Cosmos 1606 3.8 19:31:41 10° SSW 19:35:19 46° WNW 19:39:00 10° N
Cosmos 1844 Rocket 2.7 19:32:03 10° SSW 19:37:38 85° WNW 19:43:16 10° NNE
SPOT 1/Viking Rocket 3.7 19:36:09 15° SSE 19:40:23 61° ENE 19:45:32 10° N
MetOp-B 4.1 19:36:53 13° SSE 19:41:40 78° ENE 19:47:03 10° NNW
SL-4 R/B 3.3 19:38:30 10° WNW 19:42:32 35° SW 19:45:35 17° SSE
Cosmos 1805 Rocket 4.0 19:38:39 10° NNW 19:42:57 60° W 19:47:13 10° S
Cosmos 2084 4.5 19:41:37 19° SSE 19:43:13 24° ESE 19:46:35 10° ENE
USA 308 4.4 19:39:37 10° WNW 19:43:34 34° N 19:47:30 10° ENE
ARIANE 5 R/B 3.1 19:43:07 20° SE 19:45:49 44° ENE 19:49:57 10° N
Cosmos 1354 Rocket 4.0 19:41:04 10° S 19:46:10 58° ESE 19:51:20 10° NNE
X-37B 0.7 19:43:10 10° W 19:46:20 58° S 19:47:53 26° ESE
Cosmos 1633 Rocket 3.1 19:47:07 10° N 19:51:29 64° E 19:54:17 21° SSE
Cosmos 1745 Rocket 4.3 19:45:46 10° NNW 19:51:56 66° W 19:58:00 10° S
Cosmos 883 Rocket 4.5 19:47:35 10° S 19:53:52 76° E 20:00:14 10° NNE
SPOT 3 Rocket 3.9 19:49:01 11° S 19:53:58 66° WSW 19:59:06 10° NNW
Cosmos 1437 3.3 19:54:17 29° E 19:54:25 29° E 19:56:57 10° NNE
Cosmos 1709 Rocket 3.9 19:48:41 10° N 19:54:51 79° E 19:59:47 16° SSE
Landsat 7 4.1 19:52:37 13° S 19:56:46 69° WSW 20:01:32 10° NNW
Cosmos 1812 3.8 19:56:30 25° ESE 19:57:28 28° E 20:00:48 10° NNE
Cosmos 1844 3.9 19:52:10 10° SSW 19:57:53 74° WNW 20:03:35 10° NNE
BREEZE-M DEB (TANK) 4.3 19:55:46 10° W 20:00:05 60° SSW 20:06:54 17° ESE
Cosmos 1470 Rocket 4.0 19:56:18 10° N 20:00:38 47° ENE 20:02:46 26° SE
ATLAS 5 CENTAUR R/B 2.4 19:55:45 10° NW 20:01:20 84° SW 20:05:41 22° SSE
Cosmos 1328 Rocket 3.6 19:59:49 20° S 20:02:45 59° E 20:07:07 10° NNE
NOSS 3-3 (A) 4.0 19:57:15 10° SSW 20:02:45 52° ESE 20:08:59 10° NE
NOSS 3-3 (C) 4.0 19:57:21 10° SSW 20:02:52 52° ESE 20:09:05 10° NE
Akebono 4.4 20:02:24 10° N 20:04:49 43° ENE 20:04:51 43° ENE
ATLAS 2AS CENTAUR R/B 4.2 19:59:37 10° NW 20:06:15 32° NNE 20:12:28 10° E
IGS 5A 4.5 20:04:31 12° SSW 20:08:06 42° W 20:12:03 10° NNW
Meteor 1-26 Rocket 4.2 20:02:48 10° S 20:08:33 86° E 20:14:08 10° NNE
CARTOSAT-1 3.5 20:07:02 28° SSE 20:09:16 70° ENE 20:13:34 10° N
Cosmos 1833 Rocket 3.2 20:05:21 10° NNW 20:10:52 50° ENE 20:14:00 25° ESE
Cosmos 2315 Rocket 4.0 20:04:47 10° S 20:11:09 84° E 20:17:35 10° N
CRYOSAT 2 4.4 20:07:54 18° S 20:11:35 81° W 20:16:30 10° N
Meteor 1-14 Rocket 4.3 20:06:46 10° N 20:12:41 75° ENE 20:16:14 25° SSE
BREEZE-M R/B 1.7 20:11:44 10° WSW 20:14:11 78° NNW 20:15:12 31° ENE
Cosmos 1933 Rocket 4.1 20:11:02 10° N 20:15:11 42° ENE 20:16:40 31° ESE
Cosmos 1666 3.5 20:13:07 10° N 20:16:35 35° ENE 20:17:20 31° ESE
Cosmos 1666 Rocket 4.0 20:12:43 10° NNW 20:17:03 57° W 20:19:58 20° SSW
Cosmos 1538 Rocket 4.5 20:15:50 10° NNW 20:21:06 51° ENE 20:23:35 29° ESE
USA 245 3.2 20:23:49 34° WSW 20:23:54 35° W 20:26:00 10° NNW
Iridium 4 Rocket 4.0 20:22:03 28° SSE 20:24:52 54° E 20:30:36 10° N
USA 305 3.8 20:21:49 10° NW 20:25:55 44° NNE 20:28:37 19° E
Cosmos 1242 Rocket 4.2 20:24:47 10° SW 20:28:04 33° WNW 20:31:20 10° N
Resurs 01 Rocket 3.7 20:30:20 10° SW 20:33:50 22° W 20:37:21 10° NW
BREEZE M DEB (TANK) 1.5 20:30:04 10° WNW 20:33:56 69° NNE 20:34:07 65° NE
Cosmos 773 Rocket 4.1 20:29:11 10° NNW 20:34:29 72° WSW 20:37:01 31° S
Spot 2 Rocket 3.9 20:34:13 24° S 20:37:07 58° W 20:42:07 10° NNW
SJ 16-02 1.8 20:38:19 40° ESE 20:38:45 41° ESE 20:42:57 10° NNE
OE (NEXTSAT) 4.2 20:36:31 10° W 20:39:58 66° S 20:39:58 66° S
Cosmos 2228 Rocket 3.7 20:40:06 35° ESE 20:40:34 36° E 20:44:39 10° NNE
COSMOS 2406 3.2 20:35:36 10° NNW 20:41:19 82° ENE 20:43:43 36° SSE
Meteor 2-6 Rocket 4.0 20:41:14 30° S 20:43:58 78° E 20:49:28 10° NNE
Cosmos 2082 Rocket 2.7 20:38:40 10° NNW 20:44:06 48° NE 20:46:29 30° ESE
USA 306 3.5 20:40:56 10° NW 20:45:07 52° NNE 20:47:01 29° E
Cosmos 1500 3.8 20:42:23 10° NNW 20:46:02 48° W 20:47:10 35° SW
Cosmos 1782 4.2 20:43:16 12° SW 20:46:33 35° WNW 20:50:16 10° N
CZ-4C R/B 3.0 20:39:36 10° NW 20:46:51 88° SW 20:51:18 31° SE
ERS-1 Rocket 3.2 20:50:52 33° S 20:53:03 62° WSW 20:58:03 10° NNW
SL-24 DEB 4.2 20:53:26 48° SE 20:54:29 64° E 20:59:03 10° N
SPOT 5 3.3 20:52:52 33° SSW 20:55:02 61° W 21:00:14 10° NNW
deb Kosmos-1763 3.8 20:51:42 10° NNW 20:55:16 79° ENE 20:55:19 78° E
H-2A R/B 3.3 20:52:42 10° NNE 20:56:56 82° ESE 20:57:49 55° S
Meteor 1-11 Rocket 3.8 20:54:35 10° N 21:00:35 73° ENE 21:02:44 41° SSE
Cosmos 1271 Rocket 2.6 21:00:22 69° SSE 21:00:44 77° E 21:04:45 10° NNE
Cosmos 1777 Rocket 4.2 20:58:39 18° SSW 21:02:29 69° WNW 21:07:41 10° NNE
Terra 1.9 21:02:22 43° S 21:03:50 68° WSW 21:08:36 10° NNW
CREW DRAGON DEMO-1 DEB 4.4 21:02:59 10° WNW 21:04:38 31° NW 21:04:38 31° NW
Cosmos 2278 Rocket 2.1 21:05:44 26° SSW 21:09:06 88° WNW 21:14:49 10° NNE
USA 307 3.1 21:06:14 10° NW 21:10:30 66° NNE 21:11:26 50° E
Cosmos 1340 Rocket 3.6 21:10:09 10° N 21:14:02 40° ENE 21:14:05 40° ENE
Cosmos 923 Rocket 4.2 21:09:00 10° NNW 21:14:14 63° ENE 21:15:32 47° ESE
Cosmos 1898 Rocket 4.3 21:17:25 34° E 21:17:25 34° E 21:22:07 10° NE
Cosmos 2327 Rocket 4.5 21:12:19 10° N 21:18:46 85° E 21:21:03 43° SSE
Cosmos 2369 Rocket 4.3 21:21:42 12° E 21:21:42 12° E 21:23:00 10° ENE
Cosmos 1544 3.7 21:17:53 10° N 21:20:56 48° NE 21:20:56 48° NE
Cosmos 2084 4.3 21:18:25 10° WSW 21:22:27 48° NW 21:26:35 10° NNE
X-37B 3.5 21:19:57 10° W 21:20:09 11° W 21:20:09 11° W
Cosmos 1869 Rocket 3.3 21:19:12 10° N 21:23:33 86° W 21:23:54 75° S
Cosmos 1536 2.7 21:19:43 10° N 21:23:48 84° E 21:23:48 84° E
USA 308 2.9 21:19:42 10° WNW 21:24:01 78° NNE 21:24:24 70° E
Meteor 1-10 Rocket 4.5 21:22:59 32° SSW 21:25:36 64° WNW 21:31:14 10° N
Cosmos 1943 Rocket 3.3 21:30:26 27° E 21:30:26 27° E 21:34:40 10° NE
Cosmos 2154 Rocket 4.0 21:24:32 10° NNW 21:30:52 77° W 21:33:03 44° S
ALOS 2 3.6 21:38:42 33° ENE 21:39:02 34° ENE 21:42:58 10° N
Cosmos 990 Rocket 3.9 21:40:01 63° SE 21:40:28 66° ESE 21:45:41 10° NNE
Cosmos 44 4.1 21:35:27 10° NNW 21:40:47 51° NE 21:42:23 38° E
Cosmos 1707 Rocket 3.6 21:42:54 68° ENE 21:42:54 68° ENE 21:47:06 10° NNE
NOSS 3-4 (A) 3.8 21:37:29 10° NW 21:44:29 74° SW 21:47:02 45° SSE
NOSS 3-4 (C) 3.8 21:37:37 10° NW 21:44:36 75° SW 21:47:09 45° SSE
ATLAS 5 CENTAUR R/B 4.2 21:41:41 10° WNW 21:45:33 18° WSW 21:47:13 16° SW
Cosmos 962 Rocket 4.3 21:44:10 10° N 21:50:19 89° ENE 21:51:48 55° S
Cosmos 2112 Rocket 3.9 21:47:42 10° NNW 21:53:05 86° ENE 21:53:50 67° SSE
Cosmos 1833 Rocket 3.9 21:49:46 10° NW 21:54:32 29° WSW 21:55:42 26° SW
Nadezhda 1 Rocket 4.4 21:51:52 33° SW 21:54:37 58° WNW 22:00:48 10° N
SL-24 R/B - RUBIN 2 4.1 21:50:10 10° NW 21:55:43 65° NE 21:56:38 54° E
Cosmos 1238 Rocket 3.8 21:50:18 10° N 21:56:43 74° E 21:57:51 58° SE
Cosmos 1743 3.2 21:53:37 10° NNW 21:56:52 59° NW 21:56:52 59° NW
ATLAS 2AS CENTAUR R/B 2.7 21:50:47 10° NW 21:58:14 87° NE 22:00:32 47° SE
USA 215 3.6 21:55:02 20° ESE 21:59:41 63° NNE 22:06:08 10° NW
SeaSat 1 4.1 21:55:54 10° NE 21:58:33 20° E 21:58:33 20° E
BREEZE-M DEB (TANK) 4.2 21:58:50 10° WNW 22:03:51 34° N 22:04:41 28° NNE
Cosmos 2297 3.6 22:03:58 64° SSE 22:04:30 68° ESE 22:10:10 10° NNE
USA 305 3.9 22:01:48 10° WNW 22:04:41 38° W 22:04:41 38° W
Cosmos 2181 Rocket 3.9 22:07:22 58° SSE 22:08:33 73° E 22:14:41 10° NNE
Cosmos 1733 Rocket 3.2 22:12:05 10° NNW 22:16:02 67° WNW 22:16:02 67° WNW
SJ 16-02 3.4 22:15:15 16° W 22:17:30 24° WNW 22:21:07 10° N
Cosmos 1680 Rocket 3.9 22:16:03 10° NNW 22:21:10 49° WSW 22:21:27 48° WSW
Cosmos 2341 Rocket 4.2 22:15:19 10° NNW 22:21:38 62° W 22:23:08 49° SW
Cosmos 2366 rocket 3.9 22:16:43 10° N 22:22:55 89° ENE 22:24:07 61° S
Cosmos 1937 Rocket 3.3 22:24:06 80° SSW 22:24:23 90° WNW 22:29:35 10° NNE
Cosmos 1818 3.6 22:21:20 10° NW 22:26:51 76° NE 22:27:40 63° ESE
Thor Agena Rocket 4.0 22:22:44 10° NNE 22:27:47 46° E 22:27:48 46° E
Cosmos 2082 Rocket 3.3 22:23:09 10° NW 22:27:57 30° WSW 22:28:19 29° WSW
Cosmos 1908 Rocket 4.0 22:23:44 10° N 22:27:56 57° ENE 22:27:56 57° ENE
Cosmos 967 Rocket 4.3 22:27:43 59° SSW 22:28:59 83° ESE 22:35:18 10° NE
Cosmos 1900 4.2 22:33:48 85° SW 22:33:56 89° NW 22:39:01 10° NE
CZ-4C R/B 4.3 22:29:06 10° WNW 22:34:57 25° WSW 22:36:28 23° SW
Gbstr 26 Del rocket 4.0 22:29:32 10° WNW 22:36:44 77° NNE 22:40:00 29° ESE
Cosmos 858 Rocket 4.5 22:37:14 67° WSW 22:37:46 74° WNW 22:43:01 10° NNE
ERBS 4.3 22:34:54 10° NW 22:37:05 29° N 22:37:05 29° N
Nimbus 7 Rocket 4.3 22:32:47 10° NNE 22:38:41 73° ESE 22:39:29 64° SSE
Cosmos 2218 Rocket 4.1 22:34:41 10° NNW 22:40:53 67° W 22:42:06 55° SW
Meteor 1-19 Rocket 4.1 22:40:49 62° WSW 22:41:29 70° WNW 22:46:53 10° N
Okean 1 4.5 22:46:34 37° WNW 22:46:34 37° WNW 22:49:57 10° N
Cosmos 489 Rocket 4.4 22:42:14 10° NNW 22:48:26 72° WSW 22:49:22 62° SSW
Cosmos 1461 3.5 22:53:28 55° ENE 22:53:28 55° ENE 22:57:18 10° NE
Cosmos 2278 Rocket 4.5 22:50:00 10° W 22:54:01 19° NW 22:58:04 10° N
Cosmos 1703 Rocket 3.8 22:57:18 66° NE 22:57:18 66° NE 23:01:11 10° NNE
Cosmos 1782 Rocket 3.8 22:55:07 10° N 22:59:17 65° NE 22:59:17 65° NE
Nadezhda 3 Rocket 4.0 23:02:11 58° SSE 23:03:20 71° E 23:09:32 10° NNE
Cosmos 1378 4.5 23:04:38 35° NE 23:04:38 35° NE 23:07:06 10° NNE
Cosmos 2369 Rocket 2.0 23:03:27 73° SSE 23:03:55 80° ESE 23:09:34 10° NNE
Cosmos 2150 Rocket 4.4 23:04:47 52° ESE 23:04:51 52° ESE 23:10:02 10° NNE
COBE Rocket 4.4 23:07:04 49° W 23:07:04 49° W 23:12:00 10° NNW
RESURS DK-1 3.0 23:05:57 10° NNW 23:09:53 52° NE 23:09:53 52° NE
Meteor 1-13 Rocket 4.2 23:09:32 59° SE 23:10:06 63° E 23:15:34 10° NNE
Gblst 52 Del rocket 4.3 23:04:34 10° WNW 23:11:18 86° NNE 23:14:42 27° ESE
Meteor 1-12 Rocket 4.3 23:06:10 10° N 23:12:06 77° ENE 23:13:07 61° SE
Cosmos 1975 4.4 23:09:37 10° NNW 23:12:12 27° WNW 23:12:12 27° WNW
Cosmos 1943 Rocket 2.7 23:11:55 40° WSW 23:13:26 51° WNW 23:18:55 10° NNE
SL-27 R/B 4.2 23:11:12 10° N 23:13:17 30° NNE 23:13:17 30° NNE
Cosmos 1805 4.5 23:11:15 10° N 23:14:33 36° ENE 23:14:33 36° ENE
ALOS 2 4.1 23:16:05 26° WNW 23:16:05 26° WNW 23:19:08 10° NW
PSLV R/B 3.7 23:14:22 10° NNE 23:18:26 70° NE 23:18:26 70° NE
Cosmos 1867 3.7 23:18:56 58° ESE 23:18:57 58° ESE 23:24:20 10° NE
Cosmos 1607 4.0 23:19:25 57° SSE 23:20:22 64° ESE 23:26:47 10° NE
Meteor 2-4 Rocket 4.0 23:20:31 50° WSW 23:21:32 57° WNW 23:27:07 10° N
Cosmos 2263 4.1 23:22:38 69° S 23:23:21 82° ESE 23:29:10 10° NNE
Cosmos 468 4.3 23:18:13 10° NNW 23:23:33 84° WSW 23:23:50 79° S
Cosmos 1066 Rocket 4.3 23:26:45 59° SE 23:27:37 69° E 23:33:18 10° NNE
Okean 3 3.6 23:28:08 70° NNE 23:28:08 70° NNE 23:31:57 10° N
EO 1 Del DPAF 3.9 23:24:46 10° NNE 23:27:38 51° NNE 23:27:38 51° NNE
Okean 1-7 3.6 23:30:15 46° WNW 23:30:15 46° WNW 23:34:03 10° N
ATLAS CENTAUR R/B 2.8 23:33:01 27° ENE 23:33:01 27° ENE 23:35:05 10° NE
Helios 1A 3.5 23:31:39 50° ENE 23:31:44 50° ENE 23:35:46 10° N
Sich 1 Rocket 3.6 23:31:01 10° N 23:35:34 79° ENE 23:35:34 79° ENE
Cosmos 1125 Rocket 3.4 23:35:51 71° SSE 23:36:13 75° ESE 23:41:27 10° NNE
SeaSat 1 2.7 23:32:41 10° NNE 23:37:33 60° WNW 23:38:19 53° W
Cosmos 1656 Rocket 3.5 23:39:04 69° SW 23:39:46 86° WNW 23:45:20 10° NNE
Cosmos 494 Rocket 3.8 23:34:40 10° NNW 23:39:54 82° WSW 23:40:13 76° SSW
USA 81 4.4 23:36:04 10° N 23:41:17 57° E 23:42:25 47° SE
USA 215 3.3 23:42:20 50° SSW 23:42:49 51° SW 23:49:09 10° WNW
Cosmos 1833 4.1 23:41:07 10° NNW 23:46:52 70° WSW 23:47:33 63° SSW
ATLAS 2AS CENTAUR R/B 4.1 23:43:01 10° WNW 23:47:56 22° WSW 23:47:56 22° WSW
Cosmos 1674 Rocket 4.5 23:49:59 38° ESE 23:50:20 38° E 23:54:29 10° NNE
CZ-2D R/B 3.4 23:47:35 10° NNE 23:52:23 31° E 23:53:56 27° SE
Cosmos 2297 Rocket 4.4 23:48:55 10° N 23:53:23 23° NE 23:57:50 10° E
